Regional Weather Roundup
Issued by NWS

Home | Current Version | Previous Version | Text Only | Print | Product List | Glossary On
Versions: 1 2 3 4 5 6 7 8 9 10 11 12 13 14 15 16 17 18 19 20 21 22 23 24 25 26 27 28 29 30 31 32 33 34 35 36 37 38 39 40 41 42 43 44 45 46 47 48 49 50
000
ASUS44 KMEG 291010
RWRTN
TENNESSEE HOURLY STATE WEATHER ROUNDUP
NATIONAL WEATHER SERVICE MEMPHIS TN
500 AM CDT SAT AUG 29 2015

TNZ002-004-019-021-049-052-054-088>092-291100-
WEST TENNESSEE

CITY           SKY/WX    TMP DP  RH WIND       PRES   REMARKS
MEMPHIS INTL   PTCLDY    73  66  78 S8        30.03S
NWS MEMPHIS      N/A     69 N/A N/A MISG        N/A
JACKSON        CLEAR     72  67  84 S7        30.06R
DYERSBURG      MOCLDY   N/A N/A N/A MISG        N/A
UNION CITY     CLEAR     70  70 100 CALM      30.04S
PARIS          CLEAR     66  64  94 S5        30.07S
LEXINGTON      CLEAR     64  64 100 CALM      30.07R
$$

TNZ008-025-027-028-033-062-065-066-291100-
NORTH MIDDLE TENNESSEE

CITY           SKY/WX    TMP DP  RH WIND       PRES   REMARKS
NASHVILLE      PTCLDY    71  65  81 CALM      30.11R
CLARKSVILLE    CLEAR     66  64  93 SE5       30.08S
SMYRNA         PTCLDY    67  66  96 S3        30.12S
COOKEVILLE     CLEAR     63  63 100 CALM      30.14S
CROSSVILLE     PTCLDY    69  62  78 CALM      30.20R
$$

TNZ061-075-076-078-094-096-097-291100-
SOUTH MIDDLE TENNESSEE

CITY           SKY/WX    TMP DP  RH WIND       PRES   REMARKS
FAYETTEVILLE   CLEAR     70  64  83 CALM      30.13R
TULLAHOMA      PTCLDY    72  64  78 SE6       30.15R
WINCHESTER     PTCLDY    72  66  83 S6        30.14R
MCMINNVILLE    PTCLDY    66  66 100 CALM      30.15R
COLUMBIA       CLEAR     70  70 100 CALM      30.09R
SHELBYVILLE    CLEAR     72  66  83 SE3       30.13R
$$

TNZ017-018-042-046-047-291100-
NORTHEAST TENNESSEE

CITY           SKY/WX    TMP DP  RH WIND       PRES   REMARKS
TRI CITIES     PTCLDY    60  58  92 CALM      30.21R
ELIZABETHTON   MOSUNNY   59  55  88 CALM      30.23R
$$

TNZ012-013-036-069-073-074-291100-
CENTRAL EAST TENNESSEE

CITY           SKY/WX    TMP DP  RH WIND       PRES   REMARKS
KNOXVILLE      CLOUDY    67  67 100 CALM      30.16R
OAK RIDGE      PTCLDY    67  64  90 CALM      30.18S
GATLINBURG     SUNNY     61  59  94 CALM      30.18R
MORRISTOWN     MOSUNNY   64  61  88 CALM      30.20R
$$

TNZ083-085-099-291100-
SOUTHEAST TENNESSEE

CITY           SKY/WX    TMP DP  RH WIND       PRES   REMARKS
CHATTANOOGA    PTCLDY    69  66  90 CALM      30.16R
$$

SKY/WX REPORTED AS FAIR MEANS FEW OR NO CLOUDS BELOW
12 THOUSAND FEET.



USA.gov is the U.S. government's official web portal to all federal, state and local government web resources and services.